Regional Weather Roundup
Issued by NWS

Home | Current Version | Previous Version | Text Only | Print | Product List | Glossary On
Versions: 1 2 3 4 5 6 7 8 9 10 11 12 13 14 15 16 17 18 19 20 21 22 23 24 25 26 27 28 29 30 31 32 33 34 35 36 37 38 39 40 41 42 43 44 45 46 47 48 49 50
000
ASUS45 KBOU 251307
RWRCO

WEATHER ROUNDUP FOR COLORADO
NATIONAL WEATHER SERVICE DENVER/BOULDER CO
700 AM MDT FRI JUL 25 2014

NOTE: "FAIR" INDICATES FEW OR NO CLOUDS BELOW 12000 FEET WITH NO
SIGNIFICANT WEATHER AND/OR OBSTRUCTIONS TO VISIBILITY.

COZ001>005-013-030-031-251400-
...NORTHWEST COLORADO...

CITY           SKY/WX    TMP DP  RH WIND       PRES   REMARKS
CRAIG          MOCLDY    55  54  96 CALM      30.23R
HAYDEN         MOCLDY    61  48  63 E13       30.26S
MEEKER         PTCLDY    59  50  72 CALM      30.24R
MOUNT WERNER   NOT AVBL
STEAMBOAT SPGS PTSUNNY   56  50  82 E3        30.30R
WALDEN         PTSUNNY   54  43  66 SE8       30.36R
$$

COZ006>008-011-251400-
...WEST CENTRAL VALLEYS...

CITY           SKY/WX    TMP DP  RH WIND       PRES   REMARKS
GRAND JUNCTION MOCLDY    70  53  54 E14       30.13R
MONTROSE       PTCLDY    60  51  72 SE3       30.24R
EAGLE          PTCLDY    54  52  94 VRB5      30.36S
RIFLE          MOCLDY    63  50  62 SE6       30.21S
DELTA          PTCLDY    67  53  59 E7        30.20R
NUCLA          PTCLDY    64  50  59 E7        30.28R
$$

COZ017>023-064>068-251400-
...SOUTHWEST COLORADO...

CITY           SKY/WX    TMP DP  RH WIND       PRES   REMARKS
DURANGO        PTCLDY    63  51  65 CALM      30.30R
CORTEZ         MOCLDY    68  51  54 NE5       30.23R
PAGOSA SPRINGS CLOUDY    61  51  70 CALM      30.38R
TELLURIDE      MOCLDY    54  50  87 SE5       30.48R
WOLF CREEK PAS NOT AVBL
$$

COZ009-010-012-014-032>034-037-058>063-251400-
...CENTRAL COLORADO...

CITY           SKY/WX    TMP DP  RH WIND       PRES   REMARKS
ASPEN          PTCLDY    52  46  80 S5        30.38R
BUENA VISTA    MOSUNNY   59  45  59 NW3       30.38R
COPPER MTN     MOSUNNY   54  41  62 W14       30.68S
BERTHOUD PASS  FAIR      41  28  60 NW15      30.71S
COTTONWOOD PAS PTCLDY    61  43  51 W9        30.51R
GUNNISON       CLEAR     52  45  76 NE3       30.43S
KREMMLING      MOSUNNY   52  45  76 E6        30.38S
LEADVILLE      MOSUNNY   48  41  76 NE7       30.51R
MONARCH PASS   PTCLDY    46  41  81 W23       30.76S
SALIDA         MOSUNNY  N/A N/A N/A CALM      30.41R
SUNLIGHT       CLOUDY    55  46  71 SW3       30.60R
WILKERSON PASS MOSUNNY   54  37  54 NW9G20    30.63S
$$

COZ069>075-251400-
...SAN LUIS VALLEY/SANGRE DE CRISTO MOUNTAINS...

CITY           SKY/WX    TMP DP  RH WIND       PRES   REMARKS
ALAMOSA        PTCLDY    57  52  83 CALM      30.35R
LA VETA PASS   MOSUNNY   54  43  66 SW10G21   30.50R
SAGUACHE       PTCLDY    55  50  82 NW9       30.40R
$$

COZ035-036-038>040-251400-
...NORTHERN COLORADO FRONT RANGE...

CITY           SKY/WX    TMP DP  RH WIND       PRES   REMARKS
DENVER INTL AP PTSUNNY   74  48  39 SW12      30.09R
DMNS CITY PARK   N/A     71  50  48 S5        30.10R
AURORA         PTSUNNY   68  51  53 S8        30.13R
FRONT RANGE AP PTSUNNY   73  50  43 SW12      30.11
ERIE MUNI ARPT MOSUNNY   65  49  55 S5        30.07R
BOULDER MUN AP MOSUNNY   68  50  52 CALM      30.08R
CENTENNIAL     PTSUNNY   70  47  43 SW6       30.13R
BROOMFIELD     PTSUNNY   70  45  40 W6        30.11R
FORT COLLINS   MOSUNNY   66  57  72 CALM      30.07R
LONGMONT       MOSUNNY   68  56  64 CALM      30.08R
$$

COZ041-046-047-076>085-087-088-251400-
...PIKES PEAK/PALMER DIVIDE AND SOUTHERN FOOTHILLS...

CITY           SKY/WX    TMP DP  RH WIND       PRES   REMARKS
COLO. SPRINGS  MOSUNNY   73  47  39 N10       30.16R
A. F. ACADEMY  SUNNY     65  49  56 NE2       30.19R
ELLICOTT       MOSUNNY   67  51  56 N5        30.14R
FALCON         MOSUNNY   68  46  44 NW7       30.22R
FORT CARSON    MOSUNNY   70  50  48 N12       30.13R
LIMON          MOSUNNY   67  55  65 NW8       30.09R
MONUMENT HILL  MOSUNNY   59  48  67 W7        30.23R
TRINIDAD       SUNNY     67  48  50 W13       30.15R
$$

COZ042>045-048>051-090-091-251400-
...NORTHEAST COLORADO...

CITY           SKY/WX    TMP DP  RH WIND       PRES   REMARKS
GREELEY ARPT   MOSUNNY   63  54  72 CALM      30.06R
AKRON          PTSUNNY   69  54  58 W15       30.01R
BURLINGTON     MOSUNNY   69  54  58 W7        29.97R
WRAY             N/A     69  57  66 W8        29.93R
STERLING       PTSUNNY   66  63  88 SE3       29.98R
HOLYOKE        SUNNY     73  59  60 NW10      29.93R
FORT MORGAN    PTSUNNY   65  55  69 W7        30.03R
$$

COZ086-089-092>099-251400-
...SOUTHEAST COLORADO...

CITY           SKY/WX    TMP DP  RH WIND       PRES   REMARKS
PUEBLO         MOSUNNY   75  50  41 NW7       30.04R
LA JUNTA       SUNNY     74  52  46 SW9       30.00R
LAMAR          MOSUNNY   74  55  51 SW9       29.94R
SPRINGFIELD      N/A     73  47  39 SW13      30.01F
$$



USA.gov is the U.S. government's official web portal to all federal, state and local government web resources and services.